CW9558 Weather Reports


Display with metric or nautical units.
time (UTC)temp
F
wind
direction
speed
MPH
gust
MPH
rain 1hr
in
rain 24hr
in
rain mn
in
humidity
%
barometer
mb
20260509033836 53 257 0.0 2.0 0.00 0.18 0.18 95 1007.4
20260509033329 53 257 0.0 2.0 0.00 0.18 0.18 95 1007.6
20260509032839 53 257 0.0 2.0 0.00 0.18 0.18 95 1007.6
20260509032351 53 257 0.0 2.0 0.00 0.18 0.18 95 1007.6
20260509031838 53 257 0.0 2.0 0.00 0.18 0.18 95 1007.7
20260509031330 53 257 0.0 0.0 0.00 0.18 0.18 95 1007.7
20260509030834 53 257 0.0 0.0 0.00 0.18 0.18 95 1007.7
20260509030328 53 257 0.0 0.0 0.00 0.18 0.18 95 1007.7
20260509025859 53 257 0.0 0.0 0.00 0.18 0.18 95 1007.7
20260509025330 53 257 0.0 0.0 0.00 0.18 0.18 95 1007.4
20260509024836 53 257 0.0 0.0 0.00 0.18 0.18 95 1007.6
20260509024325 53 257 0.0 0.0 0.00 0.18 0.18 95 1007.5
20260509023849 53 257 0.0 2.0 0.00 0.18 0.18 94 1007.5
20260509023354 53 257 0.0 1.0 0.00 0.18 0.18 95 1007.6
20260509022838 54 257 0.0 1.0 0.00 0.18 0.18 94 1007.5
20260509022330 54 257 0.0 3.0 0.00 0.18 0.18 94 1007.4
20260509021836 54 257 1.0 3.0 0.00 0.18 0.18 94 1007.4
20260509021329 54 257 0.0 3.0 0.00 0.18 0.18 94 1007.4
20260509020836 54 257 0.0 3.0 0.00 0.18 0.18 94 1007.4
20260509020328 54 257 0.0 2.0 0.00 0.18 0.18 94 1007.5
20260509015826 54 257 0.0 3.0 0.00 0.18 0.18 94 1007.5
20260509015407 54 257 1.0 3.0 0.00 0.18 0.18 94 1007.4
20260509014824 54 257 0.0 4.0 0.00 0.18 0.18 94 1007.5
20260509014410 54 257 1.0 4.0 0.00 0.18 0.18 94 1007.6
20260509013830 54 257 1.0 3.0 0.00 0.18 0.18 94 1007.6
20260509013345 54 257 0.0 6.0 0.00 0.18 0.18 94 1007.7
20260509012858 54 258 1.0 7.0 0.00 0.18 0.18 94 1007.6
20260509012346 54 269 2.0 9.0 0.00 0.18 0.18 94 1007.5
20260509011834 55 254 3.0 8.0 0.00 0.18 0.18 93 1007.4
20260509011326 55 267 3.0 8.0 0.00 0.18 0.18 93 1007.4
20260509010833 55 260 2.0 7.0 0.00 0.18 0.18 93 1007.4
20260509010327 55 216 3.0 7.0 0.00 0.18 0.18 93 1007.4
20260509005827 55 244 4.0 8.0 0.00 0.18 0.18 93 1007.4
20260509005334 55 234 2.0 10.0 0.00 0.18 0.18 93 1007.3
20260509004912 55 284 5.0 10.0 0.00 0.18 0.18 93 1007.2
20260509004409 55 244 3.0 8.0 0.00 0.18 0.18 92 1007.3
20260509003855 55 229 3.0 8.0 0.00 0.18 0.18 92 1007.3
20260509003326 55 236 3.0 7.0 0.00 0.18 0.18 93 1007.3
20260509002834 55 257 4.0 7.0 0.00 0.18 0.18 93 1007.3
20260509002348 55 277 2.0 8.0 0.00 0.18 0.18 93 1007.3
20260509001837 55 248 3.0 8.0 0.00 0.18 0.18 93 1007.4
20260509001325 55 242 3.0 7.0 0.00 0.18 0.18 93 1007.4
20260509000834 56 273 3.0 7.0 0.00 0.18 0.18 93 1007.3
20260509000328 56 250 3.0 7.0 0.00 0.18 0.18 93 1007.4
20260508235855 56 249 4.0 7.0 0.00 0.18 0.18 93 1007.4
20260508235348 56 275 2.0 7.0 0.00 0.18 0.18 93 1007.5
20260508234833 56 243 4.0 9.0 0.00 0.18 0.18 93 1007.5
20260508234347 56 254 3.0 9.0 0.00 0.18 0.18 93 1007.5
20260508233852 56 251 1.0 7.0 0.00 0.18 0.18 93 1007.5
20260508233336 56 264 2.0 7.0 0.00 0.18 0.18 93 1007.6
20260508232859 56 232 3.0 8.0 0.00 0.18 0.18 93 1007.6
20260508232329 56 235 3.0 8.0 0.00 0.18 0.18 93 1007.6
20260508231838 56 248 1.0 8.0 0.00 0.18 0.18 93 1007.6
20260508231330 56 275 3.0 8.0 0.00 0.18 0.18 93 1007.6
20260508230838 56 256 3.0 8.0 0.00 0.18 0.18 93 1007.6
20260508230332 56 255 3.0 8.0 0.00 0.18 0.18 93 1007.6
20260508225953 56 256 2.0 5.0 0.00 0.18 0.18 94 1007.6
20260508225353 56 218 2.0 5.0 0.00 0.18 0.18 94 1007.7
20260508224839 56 218 1.0 6.0 0.00 0.18 0.18 94 1007.7
20260508224351 56 219 3.0 7.0 0.00 0.18 0.18 94 1007.7
20260508223832 56 211 3.0 7.0 0.00 0.18 0.18 94 1007.7
20260508223324 56 251 2.0 7.0 0.00 0.18 0.18 94 1007.7
20260508222853 55 252 3.0 7.0 0.00 0.18 0.18 94 1007.8
20260508222341 55 275 1.0 7.0 0.00 0.18 0.18 94 1007.7
20260508221856 55 275 3.0 7.0 0.00 0.18 0.18 94 1008.0
20260508221349 55 273 3.0 7.0 0.00 0.18 0.18 94 1007.8
20260508220857 55 223 2.0 4.0 0.00 0.18 0.18 94 1007.8
20260508220329 55 222 0.0 6.0 0.01 0.18 0.18 94 1007.7
20260508215849 55 223 1.0 6.0 0.01 0.18 0.18 93 1007.7
20260508215338 55 248 2.0 7.0 0.01 0.18 0.18 93 1007.7
20260508214839 55 244 3.0 7.0 0.01 0.18 0.18 92 1007.7
20260508214331 55 263 2.0 10.0 0.01 0.18 0.18 92 1007.7
20260508213840 55 260 3.0 10.0 0.02 0.18 0.18 92 1007.8
20260508213352 56 258 4.0 11.0 0.02 0.18 0.18 93 1007.8
20260508212904 56 264 5.0 11.0 0.02 0.18 0.18 93 1008.0
20260508212335 56 281 3.0 12.0 0.03 0.18 0.18 94 1008.1
20260508211843 56 251 5.0 12.0 0.04 0.18 0.18 94 1008.2
20260508211331 56 260 3.0 8.0 0.05 0.18 0.18 95 1008.1
20260508210837 56 240 4.0 9.0 0.05 0.18 0.18 94 1008.2
20260508210350 56 252 3.0 10.0 0.05 0.17 0.18 94 1008.1
20260508205836 56 243 4.0 9.0 0.05 0.17 0.17 95 1008.3
20260508205346 56 258 1.0 6.0 0.06 0.17 0.17 95 1008.2
20260508204842 56 263 2.0 4.0 0.07 0.17 0.17 95 1008.3
20260508204353 56 267 1.0 8.0 0.07 0.17 0.17 94 1008.5
20260508203901 56 275 2.0 8.0 0.07 0.16 0.16 94 1008.6
20260508203331 56 253 4.0 7.0 0.08 0.16 0.16 94 1008.7
20260508202838 56 266 3.0 7.0 0.08 0.15 0.15 94 1008.7
20260508202349 56 279 3.0 4.0 0.09 0.15 0.15 94 1008.7
20260508201836 56 280 1.0 5.0 0.09 0.14 0.14 94 1008.8
20260508201347 56 281 1.0 5.0 0.09 0.13 0.13 94 1008.9
20260508200854 56 280 3.0 4.0 0.10 0.13 0.13 94 1009.0
20260508200340 55 279 2.0 8.0 0.10 0.12 0.12 93 1009.1
20260508195839 56 278 3.0 8.0 0.10 0.12 0.12 93 1009.1
20260508195351 56 284 3.0 8.0 0.08 0.10 0.10 93 1009.1
20260508194831 56 272 4.0 8.0 0.08 0.10 0.10 92 1009.2
20260508194337 56 317 4.0 9.0 0.07 0.09 0.09 92 1009.3
20260508193825 56 306 3.0 9.0 0.07 0.09 0.09 92 1009.4
20260508193411 56 277 4.0 9.0 0.07 0.08 0.08 90 1009.5
20260508192827 56 316 4.0 9.0 0.06 0.07 0.07 89 1009.6
20260508192405 57 333 5.0 9.0 0.05 0.06 0.06 89 1009.3
20260508191824 57 302 0.0 11.0 0.04 0.05 0.05 88 1009.4
20260508191350 58 308 5.0 11.0 0.03 0.04 0.04 86 1009.6
20260508190830 58 253 4.0 8.0 0.02 0.03 0.03 85 1009.4
20260508190345 58 263 4.0 11.0 0.01 0.02 0.02 85 1009.4
20260508185836 58 290 4.0 11.0 0.01 0.02 0.02 83 1009.3
20260508185324 59 279 5.0 11.0 0.01 0.02 0.02 81 1009.3
20260508184832 59 284 6.0 16.0 0.01 0.02 0.02 78 1009.4
20260508184325 60 277 7.0 16.0 0.01 0.02 0.02 76 1009.5
20260508183834 60 293 5.0 14.0 0.01 0.02 0.02 75 1009.5
20260508183346 61 319 8.0 15.0 0.00 0.01 0.01 71 1009.4
20260508182835 62 300 8.0 15.0 0.00 0.01 0.01 68 1009.4
20260508182348 63 263 8.0 18.0 0.00 0.01 0.01 66 1009.2
20260508181828 63 287 12.0 19.0 0.00 0.01 0.01 64 1009.1
20260508181336 63 309 6.0 13.0 0.00 0.01 0.01 66 1009.2
20260508180852 62 272 8.0 13.0 0.00 0.01 0.01 69 1009.2
20260508180337 62 312 2.0 6.0 0.00 0.01 0.01 68 1009.4
20260508175835 61 283 4.0 9.0 0.00 0.01 0.01 70 1009.4
20260508175328 61 275 3.0 10.0 0.00 0.01 0.01 68 1009.6
20260508174838 61 299 4.0 9.0 0.00 0.01 0.01 68 1009.5
20260508174350 61 275 3.0 9.0 0.00 0.01 0.01 68 1009.6
20260508173829 61 258 2.0 9.0 0.00 0.01 0.01 68 1009.6
20260508173339 61 325 4.0 11.0 0.00 0.01 0.01 69 1009.7
20260508172901 61 229 5.0 11.0 0.00 0.01 0.01 68 1009.8
20260508172332 60 274 5.0 11.0 0.00 0.01 0.01 68 1009.9
20260508171840 60 262 7.0 10.0 0.00 0.01 0.01 67 1009.9
20260508171352 61 267 4.0 12.0 0.00 0.01 0.01 67 1010.0
20260508170833 61 290 6.0 15.0 0.00 0.01 0.01 68 1010.1
20260508170325 61 296 4.0 11.0 0.00 0.01 0.01 66 1010.2
20260508165838 61 232 6.0 14.0 0.00 0.01 0.01 66 1010.3
20260508165332 60 302 7.0 14.0 0.00 0.01 0.01 68 1010.4
20260508164840 60 215 3.0 10.0 0.00 0.01 0.01 68 1010.4
20260508164332 60 298 4.0 10.0 0.00 0.01 0.01 68 1010.5
20260508163841 60 292 3.0 10.0 0.00 0.01 0.01 70 1010.7
20260508163351 59 223 3.0 11.0 0.00 0.01 0.01 69 1010.8
20260508162832 59 236 5.0 11.0 0.00 0.01 0.01 69 1011.0
20260508162325 58 232 4.0 13.0 0.00 0.01 0.01 68 1011.0
20260508161830 59 255 7.0 13.0 0.00 0.01 0.01 68 1011.1
20260508161403 59 284 6.0 10.0 0.00 0.01 0.01 69 1011.1
20260508160855 59 294 5.0 10.0 0.00 0.01 0.01 68 1011.0
20260508160347 59 286 4.0 10.0 0.00 0.01 0.01 69 1011.0
20260508155837 59 215 6.0 11.0 0.00 0.01 0.01 67 1010.9
20260508155352 59 293 5.0 11.0 0.00 0.01 0.01 70 1010.9
20260508154831 59 248 3.0 10.0 0.00 0.01 0.01 72 1011.0
20260508154325 59 302 5.0 10.0 0.00 0.01 0.01 69 1011.1
20260508153826 59 246 4.0 11.0 0.00 0.01 0.01 70 1011.1
20260508153355 58 255 5.0 11.0 0.00 0.01 0.01 71 1011.2
20260508152839 58 219 2.0 13.0 0.00 0.01 0.01 73 1011.1
20260508152349 57 280 8.0 13.0 0.00 0.01 0.01 70 1011.1
20260508151844 57 243 5.0 9.0 0.00 0.01 0.01 75 1011.3
20260508151353 57 297 4.0 9.0 0.00 0.01 0.01 74 1011.2
20260508150827 56 292 2.0 7.0 0.00 0.01 0.01 79 1011.3
20260508150411 55 290 3.0 5.0 0.00 0.01 0.01 75 1011.4
20260508145837 55 290 2.0 5.0 0.00 0.01 0.01 77 1011.4
20260508145327 55 292 3.0 5.0 0.00 0.01 0.01 80 1011.4
20260508144833 54 288 3.0 5.0 0.01 0.01 0.01 78 1011.4
20260508144337 54 292 2.0 7.0 0.01 0.01 0.01 83 1011.4
20260508143843 54 293 2.0 7.0 0.01 0.01 0.01 83 1011.6
20260508143330 53 296 0.0 2.0 0.01 0.01 0.01 86 1011.6
20260508142836 53 295 0.0 2.0 0.01 0.01 0.01 88 1011.7
20260508142329 52 295 0.0 4.0 0.01 0.01 0.01 87 1011.7
20260508141836 52 294 1.0 4.0 0.01 0.01 0.01 85 1011.7
20260508141328 52 296 0.0 1.0 0.01 0.01 0.01 87 1011.5
20260508140832 52 296 0.0 0.0 0.01 0.01 0.01 86 1011.8
20260508140336 52 296 0.0 2.0 0.01 0.01 0.01 85 1012.0
20260508135836 52 296 1.0 3.0 0.01 0.01 0.01 84 1011.8
20260508135325 52 296 1.0 5.0 0.01 0.01 0.01 82 1011.9
20260508134833 52 296 3.0 7.0 0.00 0.00 0.00 80 1011.9
20260508134346 52 327 3.0 7.0 0.00 0.00 0.00 79 1012.1
20260508133855 53 295 4.0 7.0 0.00 0.00 0.00 78 1011.9
20260508133327 53 291 3.0 7.0 0.00 0.00 0.00 78 1011.8
20260508132833 53 295 3.0 7.0 0.00 0.00 0.00 78 1011.5
20260508132337 52 271 2.0 8.0 0.00 0.00 0.00 79 1011.5
20260508131839 52 270 4.0 8.0 0.00 0.00 0.00 79 1011.6
20260508131331 51 280 2.0 7.0 0.00 0.00 0.00 83 1011.4
20260508130839 50 286 3.0 7.0 0.00 0.00 0.00 84 1011.5
20260508130353 50 253 3.0 7.0 0.00 0.00 0.00 85 1011.4
20260508125842 50 261 0.0 3.0 0.00 0.00 0.00 86 1011.5
20260508125335 50 259 0.0 3.0 0.00 0.00 0.00 86 1011.6
20260508124842 50 259 2.0 3.0 0.00 0.00 0.00 86 1011.7
20260508124336 50 259 0.0 1.0 0.00 0.00 0.00 86 1011.7
20260508123839 49 259 0.0 1.0 0.00 0.00 0.00 86 1011.7
20260508123352 50 259 0.0 0.0 0.00 0.00 0.00 86 1011.7
20260508122839 50 259 0.0 3.0 0.00 0.00 0.00 86 1011.6
20260508122333 50 259 0.0 4.0 0.00 0.00 0.00 86 1011.7
20260508121839 50 259 2.0 6.0 0.00 0.00 0.00 85 1011.7
20260508121331 50 263 2.0 7.0 0.00 0.00 0.00 85 1011.7
20260508120839 50 265 3.0 7.0 0.00 0.00 0.00 85 1011.7
20260508120332 50 266 2.0 8.0 0.00 0.00 0.00 85 1011.8
20260508115827 50 288 4.0 9.0 0.00 0.00 0.00 84 1011.7
20260508115413 50 279 4.0 9.0 0.00 0.00 0.00 84 1011.6
20260508114832 50 284 4.0 11.0 0.00 0.00 0.00 83 1011.5
20260508114326 50 249 5.0 11.0 0.00 0.00 0.00 83 1011.3
20260508113834 50 278 3.0 10.0 0.00 0.00 0.00 83 1011.2
20260508113347 50 278 4.0 10.0 0.00 0.00 0.00 83 1011.3
20260508112901 50 286 6.0 11.0 0.00 0.00 0.00 83 1011.3
20260508112332 50 312 6.0 11.0 0.00 0.00 0.00 82 1011.3
20260508111836 51 273 5.0 10.0 0.00 0.00 0.00 81 1011.3
20260508111328 51 300 4.0 9.0 0.00 0.00 0.00 80 1011.3
20260508110835 51 289 4.0 9.0 0.00 0.00 0.00 79 1011.2
20260508110328 51 294 6.0 12.0 0.00 0.00 0.00 77 1011.1
20260508105901 51 254 7.0 12.0 0.00 0.00 0.00 76 1011.3
20260508105333 51 260 6.0 11.0 0.00 0.00 0.00 75 1011.1
20260508104841 51 279 5.0 13.0 0.00 0.00 0.00 74 1011.2
20260508104335 51 267 6.0 15.0 0.00 0.00 0.00 74 1011.2
20260508103838 51 266 7.0 15.0 0.00 0.00 0.00 75 1011.1
20260508103351 51 279 6.0 12.0 0.00 0.00 0.00 76 1011.0
20260508102834 51 302 6.0 12.0 0.00 0.00 0.00 77 1011.0
20260508102326 51 276 5.0 12.0 0.00 0.00 0.00 77 1011.0
20260508101833 51 276 5.0 11.0 0.00 0.00 0.00 77 1011.1
20260508101348 51 280 6.0 10.0 0.00 0.00 0.00 76 1011.1
20260508100828 51 280 5.0 12.0 0.00 0.00 0.00 75 1011.1
20260508100357 51 277 4.0 12.0 0.00 0.00 0.00 75 1010.9
20260508095835 51 293 6.0 12.0 0.00 0.00 0.00 74 1011.0
20260508095327 51 267 7.0 14.0 0.00 0.00 0.00 75 1011.1
20260508094837 52 331 9.0 14.0 0.00 0.00 0.00 74 1011.2
20260508094330 52 294 6.0 14.0 0.00 0.00 0.00 74 1011.3
20260508093837 52 293 8.0 14.0 0.00 0.00 0.00 74 1011.3
20260508093351 51 267 8.0 15.0 0.00 0.00 0.00 74 1011.4
20260508092853 51 275 7.0 15.0 0.00 0.00 0.00 75 1011.4
20260508092341 51 253 6.0 11.0 0.00 0.00 0.00 76 1011.5
20260508091901 50 257 6.0 13.0 0.00 0.00 0.00 77 1011.6
20260508091351 50 283 6.0 13.0 0.00 0.00 0.00 79 1011.6
20260508090904 50 271 4.0 8.0 0.00 0.00 0.00 80 1011.6
20260508090410 50 305 4.0 9.0 0.00 0.00 0.00 80 1011.4
20260508085840 50 287 3.0 9.0 0.00 0.00 0.00 80 1011.5
20260508085328 49 265 3.0 10.0 0.00 0.00 0.00 80 1011.4
20260508084836 49 249 3.0 10.0 0.00 0.00 0.00 80 1011.3
20260508084348 49 268 3.0 7.0 0.00 0.00 0.00 79 1011.3
20260508083828 49 272 4.0 7.0 0.00 0.00 0.00 79 1011.2
20260508083332 49 275 3.0 7.0 0.00 0.00 0.00 78 1011.4
20260508082841 50 276 3.0 7.0 0.00 0.00 0.00 78 1011.4
20260508082333 50 282 2.0 9.0 0.00 0.00 0.00 77 1011.4
20260508081914 50 282 4.0 9.0 0.00 0.00 0.00 77 1011.2
20260508081349 50 279 4.0 8.0 0.00 0.00 0.00 76 1011.1
20260508080835 50 271 5.0 9.0 0.00 0.00 0.00 76 1011.3
20260508080347 50 303 6.0 11.0 0.00 0.00 0.00 76 1011.3
20260508075837 50 290 6.0 13.0 0.00 0.00 0.00 75 1011.4
20260508075331 50 289 5.0 13.0 0.00 0.00 0.00 75 1011.3
20260508074832 50 265 6.0 12.0 0.00 0.00 0.00 75 1011.3
20260508074340 50 298 4.0 12.0 0.00 0.00 0.00 75 1011.4
20260508073836 50 275 6.0 14.0 0.00 0.00 0.00 75 1011.5
20260508073325 50 313 8.0 14.0 0.00 0.00 0.00 76 1011.5
20260508072842 50 299 6.0 11.0 0.00 0.00 0.00 76 1011.4
20260508072331 50 277 5.0 11.0 0.00 0.00 0.00 77 1011.4
20260508071838 49 281 5.0 11.0 0.00 0.00 0.00 77 1011.5
20260508071344 49 285 5.0 10.0 0.00 0.00 0.00 78 1011.4
20260508070902 49 264 3.0 8.0 0.00 0.00 0.00 78 1011.4
20260508070349 49 286 5.0 10.0 0.00 0.00 0.00 79 1011.5
20260508065838 49 269 5.0 10.0 0.00 0.00 0.00 80 1011.6
20260508065348 48 292 4.0 11.0 0.00 0.00 0.00 81 1011.6
20260508064831 48 253 4.0 11.0 0.00 0.00 0.00 82 1011.6
20260508064338 47 267 4.0 8.0 0.00 0.00 0.00 83 1011.6
20260508063842 47 278 2.0 8.0 0.00 0.00 0.00 85 1011.6
20260508063332 46 252 3.0 8.0 0.00 0.00 0.00 87 1011.6
20260508062837 46 275 0.0 4.0 0.00 0.00 0.00 88 1011.6
20260508062326 45 275 0.0 4.0 0.00 0.00 0.00 89 1011.6
20260508061832 45 293 0.0 2.0 0.00 0.00 0.00 89 1011.7
20260508061347 45 293 0.0 3.0 0.00 0.00 0.00 89 1011.7
20260508060826 45 293 0.0 3.0 0.00 0.00 0.00 89 1011.7
20260508060336 45 293 0.0 0.0 0.00 0.00 0.00 89 1011.7
20260508055835 45 293 0.0 0.0 0.00 0.00 0.00 88 1011.8
20260508055348 45 293 0.0 0.0 0.00 0.00 0.00 88 1011.9
20260508054857 45 293 0.0 0.0 0.00 0.00 0.00 88 1011.9
20260508054328 45 293 0.0 0.0 0.00 0.00 0.00 87 1012.0
20260508053835 45 293 0.0 0.0 0.00 0.00 0.00 87 1012.0
20260508053359 45 293 0.0 0.0 0.00 0.00 0.00 87 1012.0
20260508052841 46 293 0.0 0.0 0.00 0.00 0.00 86 1012.0
20260508052333 46 293 0.0 0.0 0.00 0.00 0.00 86 1012.0
20260508051841 46 293 0.0 0.0 0.00 0.00 0.00 86 1012.0
20260508051335 46 293 0.0 0.0 0.00 0.00 0.00 86 1012.0
20260508050843 46 293 0.0 0.0 0.00 0.00 0.00 85 1012.1
20260508050355 46 293 0.0 0.0 0.00 0.00 0.00 85 1012.0
20260508045857 46 294 0.0 0.0 0.00 0.00 0.00 85 1012.0
20260508045327 46 294 0.0 0.0 0.00 0.00 0.00 84 1012.1
20260508044858 46 294 0.0 0.0 0.00 0.00 0.00 84 1012.0
20260508044349 46 294 0.0 1.0 0.00 0.00 0.00 84 1012.0
20260508043838 47 294 0.0 1.0 0.00 0.00 0.00 84 1012.2
20260508043328 47 294 0.0 0.0 0.00 0.00 0.00 83 1012.1
20260508042837 47 294 0.0 0.0 0.00 0.00 0.00 83 1012.0
20260508042349 47 294 0.0 0.0 0.00 0.00 0.00 83 1012.0
20260508041827 47 294 0.0 0.0 0.00 0.00 0.00 82 1012.0
20260508041337 47 294 0.0 0.0 0.00 0.00 0.00 82 1012.0
20260508040842 47 294 0.0 0.0 0.00 0.00 0.00 81 1012.0
20260508040353 48 294 0.0 0.0 0.00 0.00 0.00 81 1012.0
20260508035837 48 294 0.0 0.0 0.00 0.00 0.00 81 1012.1
20260508035329 48 294 0.0 0.0 0.00 0.00 0.00 80 1012.1
20260508034839 49 294 0.0 2.0 0.00 0.00 0.00 79 1012.1
20260508034331 49 295 1.0 2.0 0.00 0.00 0.00 79 1012.1